Theta_e
303 303 301 301 301 302 302 302 303 304 305 305 305 305 306 307 306 306 306 306 306 306 307 307 307 307 307 307 306 306 307 308 309 309 309 308 308 307 307 307 306 306 307 308 307 308 308 308 306 307 308 307 306 306 305 303 303 307 311 311 308 308 307 306 305 304 304 304 303 303 303 304 305 304 302 302 303 304 304 304 305 304 303 304 304 304 303 303
302 301 301 301 301 302 302 302 303 305 305 305 306 306 306 307 307 307 306 306 306 307 307 307 307 307 307 307 307 307 306 307 310 309 308 308 307 307 307 307 306 306 307 307 307 307 308 307 306 307 308 307 305 306 307 304 304 306 309 310 307 307 305 303 303 302 303 304 304 303 302 303 304 304 303 304 305 304 304 305 305 304 304 305 304 304 303 303
301 301 301 301 302 302 302 303 305 305 304 305 306 306 307 307 307 307 307 307 307 307 307 307 308 307 308 307 307 307 305 309 311 309 308 307 306 307 307 307 306 306 307 307 307 307 307 306 306 307 307 306 304 305 307 305 304 304 308 309 306 304 303 301 301 301 301 303 304 304 301 302 303 302 303 304 305 304 304 305 305 305 304 304 304 305 304 303
301 301 302 302 302 302 303 304 305 305 304 305 306 307 307 307 308 308 308 308 307 308 308 309 309 308 308 307 307 307 306 311 311 307 308 306 306 307 307 308 307 306 306 306 306 306 305 305 306 307 307 306 304 305 305 303 305 304 306 308 304 303 303 302 301 300 300 301 303 304 302 303 303 301 302 304 304 305 304 304 304 304 304 304 304 306 305 304
302 302 303 303 303 302 304 305 305 304 305 305 306 307 307 308 308 308 308 308 308 309 309 309 309 308 307 306 306 306 307 312 311 308 308 305 306 307 307 307 307 306 306 306 306 306 305 307 308 307 306 306 306 306 304 301 303 304 302 303 303 302 304 302 300 300 298 300 302 303 303 303 302 301 303 303 304 305 305 303 304 303 304 304 304 304 304 305
301 302 303 303 303 303 304 304 304 304 305 305 306 307 308 309 309 308 307 308 308 308 308 308 309 308 307 307 306 307 310 312 309 308 307 305 306 307 307 307 307 307 307 306 306 306 306 308 309 307 305 305 305 305 303 301 302 304 302 301 301 301 303 301 300 299 298 300 303 303 303 302 302 303 302 302 304 305 304 303 303 304 303 302 302 303 304 305
301 302 303 304 303 303 303 303 304 304 305 306 306 307 307 308 309 309 308 308 308 308 308 308 308 309 308 308 308 310 313 310 308 309 307 305 306 307 307 306 307 307 307 306 306 307 307 307 306 305 305 305 304 303 303 303 304 305 303 301 301 301 301 300 300 299 298 301 302 301 302 303 304 304 301 301 304 304 305 304 302 302 301 301 302 304 305 305
301 302 302 303 304 303 303 303 304 305 306 306 307 308 308 308 309 309 309 309 309 309 309 309 308 309 309 309 312 312 311 309 308 309 306 305 306 307 308 306 306 306 306 306 306 309 310 308 306 305 306 305 304 303 302 304 304 304 303 301 301 301 301 299 299 300 299 301 300 301 304 304 302 301 300 302 304 305 304 302 301 301 301 301 302 304 304 304
302 302 302 303 304 303 303 304 305 306 306 306 307 308 308 309 310 309 310 309 310 310 310 310 309 310 308 309 314 313 309 308 309 308 306 305 306 306 308 307 306 306 306 305 304 308 310 309 307 307 305 303 303 303 302 305 305 303 302 302 302 301 301 300 301 301 300 301 301 302 304 303 300 300 302 304 304 303 301 301 301 301 302 302 303 304 304 303
302 303 302 302 304 303 304 305 305 306 307 307 307 309 309 310 310 310 310 309 310 310 310 310 309 309 309 311 316 312 308 308 309 308 306 306 306 306 307 306 306 306 306 304 303 307 311 309 307 308 306 303 303 302 302 305 304 302 302 302 302 301 301 301 302 301 301 301 301 304 304 303 301 301 305 305 302 301 302 303 302 301 303 303 303 304 303 302
303 304 302 302 304 304 304 305 305 306 306 307 309 311 310 310 310 310 310 309 310 309 310 310 309 309 309 313 315 311 308 309 309 309 307 306 307 306 306 306 306 306 306 305 303 304 307 306 306 310 309 305 304 302 301 301 302 301 302 303 302 302 302 302 302 302 301 301 300 301 303 304 302 302 306 305 301 300 302 304 303 303 303 303 303 303 303 303
305 305 303 303 304 305 306 307 307 307 307 308 310 311 310 310 310 311 310 310 309 310 309 309 310 310 310 312 311 309 308 308 309 310 308 306 306 305 305 306 306 307 306 306 304 303 304 303 307 312 309 305 304 304 302 300 301 301 302 304 303 303 304 303 302 301 301 302 299 299 304 307 304 304 306 302 300 301 302 303 304 304 303 303 303 302 303 303
305 305 303 304 305 306 308 308 308 308 308 308 310 310 311 310 310 311 311 311 310 310 310 310 310 310 312 312 309 308 308 308 309 309 309 308 307 306 305 305 306 306 305 305 303 302 303 303 306 310 307 305 303 303 303 301 301 303 303 305 305 306 305 303 302 302 302 301 298 300 306 309 307 306 304 300 299 301 303 305 305 304 304 303 302 302 303 304
305 304 304 305 307 307 308 308 308 308 308 309 310 310 310 310 311 311 311 311 311 310 310 311 310 310 313 311 308 308 308 308 309 310 309 309 308 307 306 306 306 305 305 304 303 303 304 304 306 307 305 305 303 303 305 303 303 305 304 306 307 309 307 303 302 303 303 301 299 302 308 309 307 305 302 299 300 301 303 305 305 305 304 303 303 302 303 304
305 304 305 306 307 307 307 308 308 308 308 309 309 309 309 310 311 311 311 311 311 311 311 311 311 312 313 310 308 308 308 308 309 309 309 309 309 309 308 307 306 306 306 305 305 305 305 306 308 307 304 306 306 306 307 306 305 305 307 309 309 309 308 304 300 302 303 302 301 304 308 309 308 305 301 298 300 301 303 305 305 305 304 303 303 302 303 303
305 305 306 307 307 307 307 308 308 309 309 309 309 310 310 310 311 311 311 311 312 311 311 311 311 312 315 311 308 308 308 308 308 308 309 308 308 309 309 307 307 306 306 306 306 306 306 308 308 306 306 307 308 309 310 309 308 307 308 310 310 309 309 307 301 299 301 302 302 304 307 309 308 304 301 299 300 301 302 304 304 305 304 303 303 303 302 303
306 306 307 307 307 308 308 308 308 309 309 309 310 310 310 311 311 310 310 311 312 311 312 311 309 312 314 310 309 310 309 307 307 307 308 308 307 308 309 309 308 306 308 308 307 309 309 309 308 307 308 307 307 310 310 309 309 309 310 310 309 308 308 309 305 301 301 303 304 304 305 308 308 306 305 302 301 301 302 304 305 304 304 303 303 303 303 303
307 307 307 307 307 308 308 308 308 308 308 308 308 309 310 311 310 310 311 310 312 312 312 311 311 314 313 310 310 309 307 307 307 306 308 308 307 307 307 308 308 308 313 313 310 311 311 310 310 310 310 308 307 311 310 308 308 310 311 310 310 309 308 309 308 303 301 303 305 305 305 307 308 307 307 304 301 301 303 304 304 303 303 303 303 303 303 303
307 307 307 308 308 308 308 308 308 308 308 308 308 309 308 310 311 311 310 310 314 315 314 311 312 315 314 311 310 307 307 307 307 307 307 309 308 307 306 306 309 312 316 316 311 311 311 311 313 312 311 308 305 307 309 307 307 309 310 309 310 311 310 308 306 302 300 303 305 306 306 307 307 307 308 305 301 301 303 303 303 304 304 304 304 304 304 304
307 307 307 308 308 309 308 308 308 309 309 308 309 308 310 318 318 313 310 309 309 310 313 312 310 313 313 311 309 307 308 307 308 307 306 307 306 307 308 308 314 314 311 313 311 308 310 312 311 309 307 305 303 303 303 303 304 307 308 309 309 310 311 308 304 301 299 304 307 305 305 306 307 309 308 305 301 302 303 304 305 306 306 306 305 305 305 305
306 306 306 307 307 309 310 310 309 310 310 309 309 309 315 324 322 314 310 308 305 303 309 309 307 310 309 308 306 306 309 309 309 308 306 306 306 309 312 313 318 313 307 308 310 309 312 313 308 305 304 301 301 301 302 303 304 306 308 310 310 309 310 307 303 302 299 304 308 305 305 308 309 309 307 304 303 305 305 306 307 307 306 306 305 306 306 305
305 305 306 306 305 308 310 312 310 310 310 308 310 312 311 313 313 310 311 313 307 303 308 308 307 310 306 305 305 304 310 313 312 311 306 307 309 312 313 313 316 312 307 310 312 312 313 311 307 302 301 301 300 300 302 304 304 307 309 311 312 310 309 306 302 301 300 304 309 306 305 309 310 308 306 304 304 306 306 305 307 307 307 306 305 306 306 305
306 306 306 306 305 306 309 312 311 310 310 310 310 310 308 308 308 308 311 314 311 307 310 311 311 312 310 308 305 305 311 311 311 311 306 308 312 312 312 312 312 310 310 313 316 316 313 309 304 300 300 302 302 301 302 305 306 308 309 312 312 309 309 310 305 302 301 303 305 305 305 309 310 307 306 304 303 304 305 304 304 304 306 307 306 306 305 305
306 306 306 306 305 306 308 310 312 311 311 311 310 309 309 309 308 309 312 314 313 309 307 307 308 311 311 308 305 307 312 309 308 309 305 308 312 310 310 309 310 310 308 311 315 314 311 305 300 299 301 302 303 303 303 307 309 308 307 309 310 307 306 308 306 303 304 303 301 304 309 312 311 309 308 305 303 305 306 304 304 304 304 304 304 304 304 304
306 306 306 306 306 306 306 308 312 311 310 310 309 309 308 309 307 308 313 315 314 311 306 305 307 308 307 306 305 307 311 309 307 306 304 306 310 311 309 307 310 310 307 310 313 310 306 301 298 302 303 302 304 306 304 307 311 310 306 305 305 304 304 305 305 305 309 310 304 305 312 313 312 312 310 308 306 306 307 305 306 307 305 304 304 305 306 305
306 306 306 307 306 305 306 309 309 309 311 309 308 309 308 309 307 306 315 318 312 311 311 310 309 309 307 307 306 307 313 312 305 303 304 304 305 309 311 307 307 309 307 306 308 307 304 299 299 303 304 304 307 307 303 303 310 312 305 301 302 303 303 304 305 307 312 313 305 304 311 313 314 315 311 308 307 307 308 307 307 308 307 306 305 306 306 305
306 306 306 306 306 306 308 310 308 308 310 308 308 309 308 308 305 304 314 317 309 309 312 313 310 309 308 305 305 309 314 312 306 304 304 304 304 307 312 311 308 309 303 305 310 307 304 302 302 303 304 307 309 308 303 301 309 311 302 300 302 302 304 304 304 308 310 309 307 307 309 311 313 314 309 306 308 309 309 309 308 308 308 307 306 306 306 306
305 305 306 306 306 306 307 307 306 306 307 307 306 307 307 305 303 307 314 312 308 309 311 313 309 307 308 306 306 311 310 309 311 308 302 302 305 308 313 311 309 308 302 308 314 307 303 306 304 303 306 308 306 304 301 300 307 307 300 300 302 301 303 303 305 308 306 308 313 310 307 311 313 313 309 307 309 312 312 311 310 309 308 308 307 307 306 307
305 306 306 306 306 306 306 306 305 305 305 305 304 304 303 302 305 315 317 308 307 308 309 311 309 309 311 311 311 312 308 308 312 308 303 304 305 307 310 307 306 308 305 309 313 306 302 304 302 303 307 306 303 300 298 300 304 303 299 301 302 301 303 303 305 307 307 311 314 309 305 310 312 312 312 310 311 313 313 312 310 309 308 308 307 308 307 307
306 306 306 306 307 306 306 305 304 305 304 303 303 303 303 305 313 319 313 307 309 310 310 312 312 311 313 315 315 312 311 311 307 307 309 309 308 307 305 303 306 310 309 309 308 305 301 301 301 303 304 302 301 299 297 298 301 300 301 304 305 304 303 303 304 306 310 313 312 305 303 308 311 311 314 313 312 314 313 311 310 309 308 307 307 308 307 305
306 306 306 306 306 306 306 305 303 303 302 303 304 304 307 314 319 315 307 307 311 313 313 314 312 311 313 316 315 311 312 312 307 309 313 309 309 310 306 306 310 311 312 311 309 306 304 304 304 302 301 300 301 301 298 297 299 301 303 306 309 310 307 308 309 308 312 313 309 303 302 306 311 311 313 313 312 311 310 311 310 309 308 308 307 307 306 305
305 305 305 305 305 305 305 305 302 301 303 305 306 311 317 316 314 312 309 309 311 312 313 313 311 312 312 314 314 310 311 312 308 308 310 307 307 306 305 307 308 311 313 311 311 311 309 307 304 300 300 299 302 306 304 301 301 302 305 308 312 313 312 313 313 311 312 311 306 302 303 307 311 312 312 312 311 309 308 309 309 309 308 308 308 308 306 305
305 305 303 302 303 302 303 303 301 302 304 305 309 322 326 315 311 312 310 310 309 308 309 310 310 309 311 315 314 308 308 309 308 307 306 307 307 304 302 303 303 309 312 309 310 313 312 309 305 304 303 299 301 308 311 308 306 306 308 310 313 313 312 314 313 311 312 312 305 300 304 310 311 312 312 311 309 306 305 305 305 305 305 306 307 306 305 304
305 305 303 302 302 302 303 303 305 307 306 308 317 324 318 312 311 310 310 310 306 304 307 307 310 312 311 313 309 305 309 309 307 309 309 309 310 308 307 304 302 305 308 308 310 311 313 313 308 306 305 301 300 303 306 305 306 306 304 306 312 313 313 314 313 312 313 312 308 303 307 312 311 312 311 308 306 304 303 303 302 302 302 302 303 302 303 304
306 305 304 304 303 303 304 304 307 308 307 316 328 322 313 314 314 312 313 310 305 307 307 305 313 319 312 310 307 304 309 310 307 309 311 310 309 308 307 305 303 303 306 310 309 307 311 312 306 303 302 300 301 300 298 302 307 305 301 306 312 310 310 311 311 312 312 312 312 309 310 311 310 311 309 306 305 305 305 304 303 304 303 301 303 305 305 305
305 304 306 306 304 304 303 304 307 307 312 327 330 318 317 317 311 311 315 310 307 311 311 310 315 318 314 311 310 308 307 308 309 310 309 307 306 305 304 302 302 302 305 309 309 308 312 312 304 302 302 299 300 299 297 302 307 306 306 310 308 302 305 310 309 306 307 312 313 311 311 312 311 311 310 308 309 308 308 306 305 306 305 304 307 309 309 307
305 305 305 304 305 305 303 306 307 307 317 331 324 315 315 311 304 306 310 307 307 309 313 315 312 312 316 315 312 311 309 307 309 311 310 307 307 306 303 302 301 300 301 303 306 306 309 312 306 302 305 300 295 297 298 298 302 307 310 307 303 301 304 308 312 311 312 315 314 311 311 313 312 312 312 312 312 312 311 310 309 308 308 308 310 311 310 308
304 305 306 304 305 305 305 307 306 310 323 328 321 315 310 305 301 301 303 303 306 310 315 317 310 308 316 318 313 311 310 311 312 312 311 309 308 306 304 303 301 298 297 299 305 304 305 312 308 301 304 302 295 299 305 302 299 304 307 302 303 310 311 311 313 314 315 315 315 314 312 311 312 312 313 314 314 313 312 312 311 310 310 311 312 312 310 308
304 310 313 306 303 305 306 306 306 316 327 323 320 317 307 304 301 297 299 302 306 311 314 314 310 308 311 313 313 310 309 311 312 311 311 310 309 306 302 302 301 298 296 298 304 303 302 310 312 303 301 302 301 305 309 308 303 302 304 302 303 307 309 310 310 311 315 316 315 317 316 313 313 312 313 314 314 313 313 313 313 312 312 312 311 312 313 311
304 314 316 304 303 306 304 305 311 324 327 316 314 313 304 302 301 295 296 300 304 308 312 314 312 312 314 311 309 308 307 308 309 310 310 308 308 307 301 301 301 299 297 297 301 303 302 308 312 306 301 304 307 306 306 307 306 306 308 307 306 304 304 307 306 305 311 315 313 315 317 315 314 313 312 312 313 313 313 312 314 314 313 311 311 311 311 309
305 318 315 303 304 304 304 313 315 315 318 310 306 306 302 301 301 298 296 297 300 302 305 310 311 312 316 313 309 307 307 308 308 309 309 307 309 309 302 297 299 298 299 301 301 302 304 307 311 309 307 309 307 300 297 299 300 303 307 308 308 307 307 312 312 304 304 309 310 312 315 317 315 312 309 309 310 310 308 308 312 314 312 311 312 311 308 307
311 318 309 303 304 303 311 322 305 297 309 310 302 302 302 300 301 300 297 296 299 300 300 306 308 308 311 312 310 308 308 311 310 309 309 308 307 307 300 294 295 296 300 303 302 300 302 305 309 311 308 305 301 295 294 295 294 297 301 302 304 306 308 315 317 310 305 305 305 306 312 317 315 309 306 305 305 305 303 304 309 312 309 309 310 308 306 305
319 316 304 302 304 304 312 319 306 300 305 301 295 297 298 298 300 300 298 299 302 302 304 306 305 307 308 306 308 309 309 310 310 308 308 307 304 301 296 293 295 296 299 302 302 301 302 306 310 312 307 301 298 295 293 292 294 299 301 299 301 304 306 309 310 309 308 306 306 308 312 317 315 309 305 304 304 303 303 303 307 309 308 307 308 307 306 305
318 312 306 303 302 305 312 316 317 313 303 297 297 298 296 296 298 300 302 304 303 303 308 308 303 305 303 300 305 308 307 309 310 307 305 305 302 296 293 294 295 297 300 302 303 303 305 307 310 312 311 309 307 305 303 299 298 303 303 299 299 301 302 304 304 305 309 309 310 313 315 316 315 310 307 306 306 307 307 306 307 308 307 307 306 306 305 304
311 308 309 306 301 305 310 311 317 319 308 304 305 302 300 299 297 298 301 302 300 300 307 307 301 301 299 298 304 305 301 306 309 307 303 303 300 294 293 295 295 297 299 299 299 301 305 306 308 312 313 313 313 313 312 309 304 303 302 299 299 301 302 307 307 307 311 310 308 312 316 316 314 313 311 310 309 309 309 308 308 307 306 306 306 305 305 304
311 310 312 313 308 306 304 299 306 316 313 312 310 303 303 304 299 295 297 300 299 297 301 302 299 301 301 302 310 311 304 302 303 306 306 304 301 296 293 295 296 297 299 297 296 298 302 304 305 310 312 312 314 313 308 307 306 306 305 301 300 300 301 305 307 309 310 309 307 311 314 315 315 314 313 312 311 310 310 309 308 307 307 307 306 305 304 303
311 311 309 311 312 311 309 301 303 310 310 311 311 306 305 306 302 298 296 298 298 297 300 300 299 304 307 307 313 314 308 304 304 306 307 303 299 296 293 294 295 297 299 298 296 297 303 306 304 307 310 309 308 307 304 305 306 307 307 305 302 300 300 304 308 310 309 309 312 312 310 311 313 312 312 312 311 310 310 309 308 307 306 306 305 304 303 303
306 307 301 301 306 310 311 308 305 306 307 307 306 304 306 308 306 305 301 296 295 297 302 305 303 306 310 310 312 313 310 309 310 309 306 302 299 298 297 295 294 296 298 296 295 298 304 305 302 302 306 306 303 302 301 301 303 303 304 305 303 301 301 305 308 308 307 310 314 313 310 310 311 311 311 311 310 309 308 307 306 305 304 304 304 303 303 304
303 304 298 296 304 308 306 303 304 309 309 307 305 304 308 311 308 306 302 299 300 298 300 309 310 306 308 308 308 313 314 311 311 311 307 305 302 300 302 302 297 294 295 296 296 298 302 305 303 301 304 306 303 300 299 299 301 302 301 302 303 302 302 304 306 306 306 309 312 312 311 310 310 309 309 309 308 307 306 305 305 304 305 304 304 304 305 306
305 306 303 301 304 303 300 299 303 310 307 304 307 306 306 310 310 305 300 303 310 303 299 308 312 305 305 305 305 312 314 311 311 311 307 308 306 302 304 307 302 295 294 296 297 296 300 305 304 300 305 308 303 298 298 298 299 302 302 301 301 302 302 303 304 304 304 306 307 308 308 307 307 307 307 306 306 305 305 306 305 305 305 304 304 306 307 307
301 300 301 310 311 302 301 301 301 307 307 305 308 307 305 310 310 306 302 303 308 307 303 309 312 305 301 301 304 310 311 310 313 310 306 308 309 306 305 306 304 300 297 296 297 297 299 302 301 300 306 311 304 299 301 301 301 304 307 306 303 302 302 302 302 303 304 305 305 305 305 305 307 308 307 306 306 306 306 307 307 307 306 305 305 306 307 307
300 298 299 311 312 302 301 303 299 304 311 311 310 306 307 310 307 305 307 304 301 303 303 306 309 306 304 305 307 308 307 305 305 302 299 301 302 301 300 301 302 303 299 297 298 297 298 301 302 302 307 309 303 300 302 304 308 312 313 313 309 304 302 302 301 301 302 304 305 305 307 308 309 309 308 308 309 309 308 308 308 307 306 305 305 305 305 305
Wind_Speed
4 3 2 4 6 7 6 5 6 4 1 1 3 3 4 4 3 3 4 5 6 8 8 8 9 10 10 9 7 4 4 13 24 30 25 20 28 25 17 11 10 6 1 2 2 2 4 6 7 5 4 7 6 2 2 4 3 0 1 3 5 3 3 5 5 3 1 5 7 5 4 4 2 4 1 2 6 6 5 7 7 5 7 11 9 8 9 11
5 5 5 6 7 7 6 5 4 1 1 2 3 3 4 5 4 3 3 5 6 8 8 8 9 12 11 9 8 5 6 6 19 26 22 26 29 19 11 8 8 4 2 2 2 4 3 4 4 5 5 4 4 2 1 2 4 2 1 3 4 2 3 2 2 3 1 4 7 5 3 3 1 2 1 3 4 3 7 7 6 7 9 10 11 10 10 10
6 6 6 7 7 6 5 4 2 2 1 3 3 3 4 6 5 5 3 4 3 2 2 4 7 10 10 9 10 7 7 4 15 17 24 31 25 16 10 5 6 7 3 2 2 4 6 7 4 5 6 5 4 3 3 4 3 2 1 3 4 3 4 1 1 2 1 2 6 5 2 3 1 1 0 4 6 5 8 7 5 7 7 6 7 5 5 7
6 6 7 6 6 5 4 4 3 1 1 2 3 3 4 6 4 4 4 3 7 9 10 8 5 9 12 11 11 6 6 1 8 15 27 31 24 16 8 3 5 9 8 6 9 12 12 11 8 7 6 5 4 2 5 5 2 2 2 3 6 4 4 3 2 1 1 0 3 4 2 3 1 1 2 3 6 6 6 5 6 7 6 4 4 2 2 6
5 6 6 5 5 4 4 5 3 3 1 2 2 3 4 6 4 3 5 7 9 10 12 15 14 1 10 10 9 6 4 1 6 20 29 29 23 13 6 3 4 4 6 7 9 9 9 8 7 6 5 4 3 2 5 6 3 5 3 4 7 3 3 5 1 2 1 0 1 3 2 1 1 2 3 5 7 4 2 1 4 6 6 5 4 4 4 7
5 5 5 4 4 5 6 6 4 3 1 2 2 2 4 6 6 3 3 3 2 2 4 7 14 15 11 8 7 4 2 1 10 24 27 27 20 9 6 3 4 1 1 4 3 2 4 5 5 5 4 4 5 4 4 4 2 4 3 2 3 1 3 5 1 2 1 1 2 1 1 1 1 4 1 5 11 8 3 1 1 3 3 4 4 5 6 8
3 4 4 4 4 5 6 6 4 3 1 1 1 2 3 5 5 5 4 4 2 3 3 3 3 11 14 16 17 13 8 3 14 23 24 24 15 5 6 6 2 1 2 4 3 3 4 7 8 5 4 5 6 6 4 5 4 5 6 3 1 2 3 3 2 2 1 1 0 2 2 2 4 4 2 5 13 12 8 2 2 4 3 4 5 6 7 8
3 3 4 4 4 5 5 5 4 2 0 1 2 2 2 3 4 5 5 7 7 4 5 8 6 2 5 11 13 12 7 6 17 22 22 21 14 5 3 6 5 4 6 8 6 5 3 6 8 4 4 5 3 4 2 6 10 8 7 5 2 3 4 3 2 2 0 1 1 2 4 3 3 3 4 10 12 7 5 3 3 4 4 5 6 8 8 8
2 3 3 4 4 5 5 4 3 1 1 2 3 2 2 3 4 3 4 7 11 6 2 4 5 6 5 3 4 6 5 9 15 18 21 20 15 8 2 3 4 5 8 10 5 4 1 1 3 3 6 6 3 3 2 2 5 5 6 6 5 4 3 2 2 3 2 1 1 4 6 2 2 3 6 12 9 1 1 2 1 2 4 6 6 8 7 8
1 2 3 3 3 4 4 3 1 0 1 3 3 3 4 5 5 4 4 7 11 8 6 5 4 7 7 4 4 6 4 10 13 15 20 21 16 13 12 9 8 9 11 13 9 4 1 5 7 8 11 7 3 4 5 3 5 7 9 8 7 4 3 2 2 4 3 1 2 5 7 2 3 3 5 3 3 4 2 3 2 2 5 6 6 6 6 7
0 1 3 3 3 4 3 1 1 1 2 4 5 5 5 6 7 9 7 7 13 18 18 15 10 13 17 12 7 6 3 9 11 12 18 23 22 21 21 15 12 15 15 16 15 11 12 15 13 8 5 4 6 8 7 4 7 8 7 9 7 4 4 3 2 4 3 1 2 5 8 4 4 3 7 0 5 4 3 3 2 4 6 6 5 5 5 6
1 1 3 4 5 4 2 1 2 2 4 5 5 5 4 5 8 11 11 8 9 13 15 16 13 18 26 18 7 4 5 9 10 9 15 22 26 26 24 18 14 13 12 13 10 10 13 10 9 6 2 4 5 7 6 2 4 5 2 5 5 3 4 4 2 3 3 1 3 4 7 5 7 7 5 2 4 3 3 5 4 5 5 5 4 4 5 5
3 2 4 6 6 5 5 5 5 5 6 6 6 5 5 5 6 7 9 8 6 5 4 6 3 8 16 10 4 4 5 10 9 5 10 16 21 24 24 24 22 20 20 20 13 9 9 10 17 13 4 4 3 3 8 3 1 3 1 2 3 3 3 4 3 2 1 1 4 4 3 0 5 8 2 5 4 3 4 6 5 4 4 4 3 4 5 5
4 4 6 8 8 8 9 10 10 7 6 5 5 5 5 4 5 6 8 7 7 9 10 10 7 9 11 4 1 7 7 8 8 5 8 10 12 16 19 21 24 25 26 28 23 19 17 20 26 16 3 5 5 5 7 4 1 2 0 0 1 1 2 4 5 5 1 1 4 4 3 1 2 1 3 4 2 2 6 7 6 5 4 4 3 4 5 5
5 6 8 9 8 9 10 12 14 13 10 7 5 3 2 2 5 7 8 6 7 10 14 12 9 11 10 4 1 6 8 8 11 11 10 8 7 8 11 14 17 19 20 21 20 19 17 18 17 10 3 3 4 6 5 3 1 1 1 1 1 1 1 4 4 6 3 0 3 3 4 3 3 2 4 3 2 1 5 7 6 7 6 6 5 4 5 6
7 8 9 9 8 9 9 11 13 15 15 13 13 11 6 2 5 4 8 8 8 7 8 8 8 10 7 2 2 5 7 8 12 12 9 9 8 4 4 7 9 11 14 14 13 13 16 16 8 4 3 1 1 4 3 2 2 1 1 1 1 1 1 2 3 5 4 2 2 2 4 5 2 2 4 3 1 2 5 8 8 8 7 6 5 4 5 6
7 8 8 7 7 7 7 8 8 9 10 10 12 14 15 9 3 4 3 8 10 8 8 9 9 10 5 2 1 4 5 8 12 11 7 7 8 6 3 1 2 4 7 10 12 9 11 10 1 0 4 2 2 1 2 1 1 1 1 0 1 1 1 1 2 3 4 2 2 2 5 10 7 4 4 4 2 4 8 10 9 7 6 5 5 5 5 5
6 6 5 5 4 4 5 5 4 3 1 1 3 6 12 16 10 6 3 4 4 3 6 10 7 5 4 1 1 4 6 7 11 11 7 4 5 7 7 3 2 4 1 4 10 7 5 4 1 2 4 4 4 2 1 1 1 2 2 1 1 1 2 2 0 2 5 2 4 4 7 12 12 10 8 4 3 5 8 8 7 6 6 6 5 5 5 5
5 4 4 3 2 2 3 4 4 3 4 3 0 2 2 9 13 15 17 12 3 1 2 6 6 2 3 2 3 6 5 5 8 11 10 6 4 4 7 8 3 3 1 1 5 6 3 2 2 3 3 4 4 4 3 2 1 3 2 1 1 2 1 2 1 3 4 4 6 6 6 11 12 11 8 2 4 5 7 6 5 6 5 5 5 5 5 5
6 5 4 1 1 4 6 7 6 5 4 4 2 4 0 1 4 8 16 16 7 2 1 2 2 1 3 3 5 6 2 2 5 12 15 10 5 2 4 6 2 5 4 1 3 4 2 4 5 3 3 3 2 2 2 2 1 2 1 0 1 3 1 0 0 1 2 5 4 4 7 12 13 12 7 1 3 5 7 6 5 5 4 4 4 5 5 5
7 7 6 4 3 2 2 4 4 6 6 4 3 1 1 1 2 2 3 6 3 2 3 2 2 2 3 2 7 7 1 1 2 12 18 12 4 1 3 3 1 5 4 2 2 2 1 5 4 2 2 2 1 1 1 1 1 1 1 1 1 2 2 0 0 0 1 3 2 2 8 13 11 9 4 2 4 6 7 7 6 6 5 4 5 6 5 4
6 5 5 4 5 6 6 2 3 7 7 3 2 4 3 3 8 9 5 5 4 5 4 3 2 3 1 1 6 7 1 1 3 11 19 13 4 1 3 4 4 3 2 2 1 1 4 5 2 2 3 2 3 2 1 1 1 0 0 2 0 1 3 1 1 1 1 2 2 3 8 11 9 6 4 5 5 4 4 5 5 5 5 5 5 5 3 4
6 4 2 3 4 6 7 6 4 4 6 8 10 10 9 11 13 10 5 5 3 3 3 3 2 3 2 1 6 7 2 3 3 9 18 13 3 2 2 5 6 3 3 4 1 2 3 3 2 2 3 1 2 2 1 1 1 1 1 2 1 3 3 1 2 1 3 2 4 7 8 7 5 3 3 3 2 4 3 5 5 5 6 5 3 4 3 5
6 4 3 2 3 4 6 8 10 12 14 17 18 15 13 13 11 8 4 3 2 1 1 2 1 2 3 2 7 5 2 3 1 6 17 11 1 0 2 4 4 5 5 6 6 7 5 3 2 2 2 1 1 2 0 1 1 1 2 2 2 3 4 3 3 6 4 2 3 8 6 3 1 2 3 2 0 4 2 3 6 6 6 6 6 5 4 6
8 5 4 2 2 3 4 6 10 15 16 15 16 14 12 9 6 5 2 1 1 1 0 1 2 1 1 3 8 3 3 2 1 4 11 8 2 1 2 1 2 3 1 3 6 8 5 2 0 2 2 1 2 1 2 3 1 1 0 2 2 3 4 6 7 6 3 3 1 5 3 2 2 3 4 2 1 4 1 2 6 5 3 4 5 5 4 5
9 6 4 2 2 3 3 4 8 11 9 8 11 11 8 6 4 3 2 2 2 1 2 1 1 2 2 4 7 2 3 2 2 4 7 7 3 0 3 1 2 2 2 0 4 4 3 2 1 1 1 2 1 2 2 3 2 0 0 1 0 2 4 5 6 4 2 0 2 3 3 2 0 2 1 2 4 6 4 5 7 5 4 4 5 4 3 4
9 7 4 2 3 3 2 3 8 8 2 4 10 8 7 7 5 3 1 1 1 1 2 1 0 3 3 3 5 1 1 1 1 4 7 8 5 0 2 2 1 3 1 1 2 2 2 2 2 1 2 2 1 2 2 2 3 1 1 0 1 2 3 3 4 3 1 2 2 2 3 3 2 0 2 3 4 6 7 8 8 7 6 5 5 4 4 5
10 7 4 4 3 2 2 6 8 4 1 7 10 7 7 6 2 1 0 1 0 0 1 1 0 2 2 2 4 2 1 2 1 3 6 8 6 1 3 3 2 4 2 2 1 2 2 1 1 1 0 1 2 2 1 1 2 2 2 0 1 2 1 1 3 2 1 2 2 3 4 3 2 1 2 1 3 6 6 5 6 7 7 6 6 5 5 5
11 8 6 5 4 5 5 6 4 3 6 10 9 7 6 3 0 1 1 1 1 1 1 0 1 2 3 2 4 4 2 2 3 4 7 6 8 5 5 3 4 7 3 1 3 3 1 2 2 3 2 3 2 2 1 1 1 2 2 1 1 1 0 1 2 1 1 3 1 4 6 3 2 1 2 1 2 4 3 2 3 4 5 5 5 5 5 5
12 9 7 4 3 4 4 3 4 7 9 8 7 5 3 1 1 1 1 1 0 0 1 1 1 3 4 2 3 5 4 3 3 5 4 2 5 7 5 1 2 6 4 6 7 3 1 1 2 2 3 2 2 2 2 1 1 1 2 2 2 2 1 1 1 1 2 2 2 3 5 4 2 0 1 1 1 1 1 1 2 3 4 6 6 6 6 5
12 11 8 5 2 2 2 4 6 9 8 7 6 3 1 1 1 1 0 0 0 1 1 2 2 3 5 2 2 5 3 3 4 5 4 2 3 5 3 1 1 2 3 5 5 2 2 2 1 1 2 0 1 2 1 1 1 1 2 2 2 2 2 2 2 1 2 1 3 1 4 3 3 1 1 1 1 3 3 2 3 4 5 5 6 6 6 5
12 11 9 6 3 4 4 6 8 8 6 5 4 1 1 0 1 1 1 2 1 1 1 2 2 3 4 2 3 5 3 3 5 4 3 2 3 4 2 2 0 1 1 2 1 1 1 1 1 1 1 1 1 1 1 2 2 2 2 2 2 1 1 1 1 1 2 1 3 0 2 2 5 3 2 3 3 4 4 3 2 2 3 4 5 5 4 3
10 9 8 8 7 8 9 9 7 6 5 4 2 2 3 1 1 1 0 1 1 2 1 1 1 1 1 1 3 3 2 1 3 3 1 1 2 3 1 1 1 2 0 1 0 1 1 2 1 1 1 0 2 1 0 1 1 1 1 2 3 1 1 1 1 1 2 1 2 1 2 2 4 3 3 4 3 1 2 4 4 4 5 6 5 5 5 5
9 8 7 9 10 10 10 8 5 4 3 2 1 2 3 0 1 1 1 1 1 2 1 1 1 1 2 2 1 2 0 1 2 1 1 1 1 2 1 2 1 1 1 1 0 1 1 1 1 1 1 0 1 2 2 2 1 0 1 2 2 2 2 2 1 2 3 2 0 1 2 2 1 1 1 3 4 3 4 4 4 6 7 6 6 6 7 7
6 7 8 9 10 9 7 5 4 3 2 2 3 3 1 2 2 1 2 2 2 1 0 1 1 2 3 2 1 1 1 1 1 1 2 2 1 1 1 1 2 1 1 1 1 0 1 0 2 2 1 1 1 1 1 2 1 1 1 2 1 2 2 1 1 1 2 3 1 1 2 2 1 3 1 2 5 5 5 4 5 7 6 4 6 7 7 7
3 5 7 9 9 8 7 5 4 4 2 3 3 1 1 2 1 2 1 1 2 3 3 1 1 2 1 0 1 1 1 1 1 0 2 2 0 0 0 1 1 1 1 1 1 1 1 1 2 1 0 1 2 0 0 1 1 0 1 0 2 1 1 1 1 0 1 2 1 0 3 4 2 2 1 1 3 4 4 5 6 7 5 4 6 6 6 6
4 4 6 10 11 8 6 5 4 3 3 3 2 1 1 0 0 1 0 1 0 1 3 3 1 1 2 1 1 0 0 1 1 1 1 1 1 2 1 0 0 0 1 1 1 0 1 1 2 0 1 2 1 1 1 1 2 2 0 2 2 1 0 0 1 0 0 2 1 1 3 5 2 0 0 1 2 3 3 3 4 5 4 5 7 6 6 6
5 4 5 11 12 7 4 4 3 3 3 3 1 1 1 1 1 1 0 1 1 0 1 2 1 1 2 2 2 0 1 1 0 1 1 1 1 2 2 1 1 0 2 2 1 0 2 1 2 0 1 2 1 3 1 2 1 1 1 2 1 1 0 0 1 1 2 3 3 2 3 4 3 1 1 2 3 4 3 1 3 4 4 4 5 5 6 6
4 2 2 10 12 6 4 3 2 3 2 1 1 1 1 1 1 1 0 1 1 1 1 1 1 1 1 1 1 1 1 1 1 1 1 1 1 1 1 0 1 1 1 2 1 1 0 1 1 1 1 1 1 2 1 2 2 1 1 1 0 1 2 2 1 1 2 2 3 3 3 2 4 3 2 3 4 3 3 2 3 4 3 4 4 4 5 5
3 1 1 8 11 5 5 4 3 4 2 0 1 1 0 1 1 0 1 1 1 0 0 2 1 1 2 1 1 0 1 1 1 1 0 0 1 1 0 0 1 2 0 1 1 0 0 1 1 1 1 2 1 0 1 1 0 2 2 1 2 1 0 0 1 0 2 2 2 2 4 4 2 2 4 4 1 1 2 2 3 4 5 5 5 5 5 5
2 1 1 8 9 2 4 6 4 3 2 1 1 1 1 1 2 1 1 1 1 1 0 1 2 2 3 1 1 2 1 1 1 0 1 1 1 0 1 1 0 2 1 1 1 1 1 0 1 0 1 2 1 2 3 3 3 2 1 0 1 1 1 1 0 1 1 2 1 1 5 6 1 1 4 3 1 1 2 2 4 5 6 6 6 6 5 6
2 1 1 10 9 1 3 5 2 1 1 1 1 1 1 1 2 1 1 1 0 1 0 2 2 2 2 1 0 2 2 1 1 0 1 2 0 1 1 1 1 0 1 0 1 0 0 0 1 1 0 1 2 2 1 2 2 2 2 1 0 1 1 2 1 2 2 1 0 1 4 5 0 1 3 3 2 3 3 3 5 6 6 6 7 8 7 7
1 1 1 11 9 2 3 3 1 1 2 0 1 0 1 0 1 0 0 0 0 0 1 1 1 1 0 1 1 2 2 1 2 1 1 1 1 1 1 0 1 1 1 0 1 1 1 0 1 1 1 1 1 1 1 1 2 2 2 1 1 1 1 1 1 0 1 3 3 1 4 4 0 1 3 3 3 5 4 4 6 7 6 7 8 9 7 8
1 1 1 10 9 1 1 0 2 1 1 1 1 1 0 1 0 1 0 1 0 1 1 2 0 1 1 0 2 2 0 1 2 0 0 2 1 2 1 1 1 1 1 1 1 1 1 0 1 2 1 1 2 2 2 1 1 3 2 2 2 1 3 2 1 1 2 5 5 3 5 4 1 1 2 3 3 5 6 5 6 6 8 8 8 9 8 8
1 1 1 7 10 5 1 1 2 3 2 1 2 2 1 1 0 1 1 1 0 1 1 2 0 1 2 1 2 2 1 1 1 0 1 1 1 1 1 1 1 0 1 2 1 1 1 0 1 2 2 2 2 2 1 1 2 2 2 3 4 5 5 3 2 2 4 3 5 6 6 3 1 2 4 4 4 8 10 6 4 6 8 8 8 8 8 8
1 1 1 4 7 6 2 1 2 4 3 3 3 2 1 2 1 0 0 1 1 0 1 1 1 2 2 1 2 2 1 2 2 1 2 2 2 1 1 1 1 0 0 1 1 1 0 0 3 4 5 4 2 2 1 1 1 2 3 5 6 7 5 2 2 4 4 3 5 10 7 6 9 9 7 7 7 9 11 10 6 5 6 7 7 7 8 8
1 1 1 1 2 3 2 1 2 2 1 2 2 2 3 2 1 1 0 1 0 0 1 1 2 2 2 3 2 1 0 2 2 1 1 0 1 1 0 0 1 1 1 1 2 0 1 1 2 3 7 6 3 1 2 2 5 6 5 6 9 9 7 7 7 5 5 3 6 7 7 8 14 13 11 11 10 9 9 10 10 9 9 8 7 8 10 9
2 1 0 1 0 1 1 1 2 2 2 1 1 2 3 3 2 2 1 1 1 1 1 0 2 4 4 3 3 3 2 1 1 2 2 1 1 2 1 1 1 0 0 1 1 0 1 2 1 1 5 7 4 3 3 4 6 6 7 8 9 11 11 13 14 8 8 8 10 2 4 9 13 13 14 14 11 10 12 13 10 9 10 9 9 9 10 9
1 2 1 2 0 1 1 1 1 2 3 3 1 1 3 4 4 2 1 2 0 2 2 3 4 5 4 3 2 3 3 3 2 3 3 3 2 2 2 2 2 0 1 2 0 1 2 2 1 1 5 7 5 3 3 5 5 6 10 13 11 12 14 15 14 10 10 13 15 9 7 12 16 16 16 15 11 10 12 12 10 9 9 8 8 9 9 9
1 1 1 1 2 2 1 1 1 1 2 1 0 1 2 5 5 2 1 3 2 2 3 4 3 2 3 3 3 2 4 3 1 2 5 5 2 3 3 2 3 2 1 2 1 1 2 1 2 1 4 5 3 1 1 5 6 7 11 13 12 13 14 14 12 8 9 13 16 13 11 15 17 14 11 12 11 9 10 11 10 8 7 6 8 8 8 9
2 2 2 3 2 0 0 0 1 0 1 0 1 2 2 4 5 4 2 1 1 3 6 5 4 3 3 2 5 5 4 3 1 1 4 4 1 2 2 1 4 6 4 3 2 1 2 1 2 1 3 3 2 3 2 3 5 9 13 14 14 14 11 11 10 9 12 13 10 7 7 13 12 4 3 8 8 6 9 11 10 7 5 5 8 9 10 10
3 2 1 2 1 0 0 0 0 0 1 1 1 2 2 2 3 4 3 1 1 1 2 3 5 4 2 4 6 4 1 2 1 2 2 3 3 3 3 3 4 4 5 5 2 1 2 3 2 1 3 3 1 2 3 5 7 8 8 8 10 12 10 7 7 11 14 12 6 6 9 9 4 2 3 8 8 7 8 8 8 7 6 7 8 10 11 11
Wind_Direction
215 237 249 249 242 245 241 259 290 296 301 60 8 360 346 340 330 292 263 265 268 271 268 261 249 241 259 281 289 277 329 28 39 40 41 4 343 342 333 333 344 351 168 159 140 140 90 65 52 63 77 54 25 355 74 40 15 295 234 91 110 143 140 159 171 160 98 142 161 167 191 224 189 158 176 229 224 242 259 250 245 238 237 240 255 274 277 288
202 215 225 231 230 231 234 266 278 235 100 21 3 3 353 1 12 358 282 271 281 289 286 272 259 249 261 264 261 274 263 327 29 36 19 350 348 350 344 353 2 23 151 170 184 221 144 89 49 46 59 56 8 11 99 9 9 42 88 88 110 125 99 101 129 135 164 137 151 159 186 234 233 111 131 261 239 233 270 257 229 245 246 239 247 257 269 285
190 202 211 219 221 228 241 255 212 165 21 15 18 19 9 17 24 16 337 286 272 330 3 293 274 254 254 244 244 259 247 307 30 16 351 349 352 357 358 7 30 55 103 173 143 154 126 108 91 59 62 61 22 24 44 13 350 4 48 94 108 121 101 95 176 140 301 114 155 160 162 238 227 53 284 278 286 267 265 264 240 254 260 245 237 238 263 283
186 193 203 213 220 234 233 206 182 202 355 23 24 30 29 32 35 27 31 90 122 95 71 39 339 251 232 225 226 225 232 257 39 346 344 349 349 359 5 22 70 74 86 118 112 107 104 91 71 60 71 71 39 33 34 10 342 46 14 73 115 154 122 132 206 110 320 316 169 151 160 234 129 113 257 280 291 270 259 265 260 269 282 277 253 232 279 287
190 193 201 209 216 219 201 196 209 234 303 10 23 47 49 47 49 51 76 104 109 90 68 45 31 320 207 205 208 205 234 189 7 340 348 349 346 2 17 47 127 98 76 112 114 98 88 73 62 55 61 57 23 57 39 1 358 72 23 45 106 160 116 124 181 87 132 27 155 166 200 274 89 223 242 255 264 273 330 339 266 278 297 308 299 299 304 287
189 193 196 198 206 201 199 210 222 227 271 356 28 64 66 58 47 58 114 117 91 64 63 51 51 71 105 130 148 143 140 103 345 341 350 350 349 12 26 49 158 155 65 144 132 82 62 55 63 55 69 61 36 59 45 340 288 104 77 54 92 358 92 121 112 105 172 166 166 189 332 355 288 260 229 245 251 258 300 39 299 305 332 334 316 294 292 286
178 187 187 192 203 202 206 210 210 215 266 5 61 93 91 60 42 68 101 81 40 294 276 229 94 76 87 93 90 80 80 54 342 345 356 356 357 31 47 48 97 175 171 142 101 92 79 75 87 81 90 85 61 71 62 42 54 90 110 116 74 47 81 92 81 127 237 308 80 347 317 284 289 296 17 258 253 256 266 280 286 297 326 313 292 276 280 287
176 185 186 196 203 200 199 197 201 205 134 80 93 115 101 52 50 73 84 62 33 335 268 242 233 180 107 86 79 70 63 353 338 351 4 7 15 29 53 50 66 125 113 93 95 114 87 78 107 131 81 76 83 88 64 63 59 64 107 133 110 81 80 79 82 102 75 336 343 293 275 293 335 322 301 265 258 256 275 306 286 277 280 265 265 271 275 284
192 195 193 199 197 187 186 189 201 185 79 101 94 96 75 42 28 46 75 43 15 4 223 223 200 181 164 112 80 67 32 333 338 358 12 22 35 34 29 55 79 117 88 71 86 127 132 97 136 170 106 96 100 75 334 25 54 63 106 126 117 96 77 95 100 63 35 17 348 275 279 328 48 316 271 258 265 359 357 289 260 255 263 253 256 269 273 280
205 216 194 192 186 174 177 191 217 156 68 90 84 90 77 37 27 51 86 48 30 55 97 100 142 168 153 134 100 80 349 333 355 10 22 35 50 56 56 65 93 97 77 65 57 51 140 152 127 117 111 96 65 43 344 15 87 96 107 106 95 97 78 83 100 43 11 75 3 292 288 315 81 302 260 236 8 21 314 243 200 236 259 260 261 269 270 272
273 226 184 183 168 161 167 206 318 34 88 93 91 96 80 51 59 73 81 79 74 81 85 85 105 121 101 83 82 88 351 352 13 17 28 42 53 56 54 60 82 85 81 72 60 67 98 119 124 121 116 97 80 69 43 61 105 106 114 102 81 93 86 66 84 26 347 96 12 304 288 275 129 239 253 64 39 12 316 266 234 246 259 266 269 272 266 265
359 181 172 164 149 143 118 58 25 62 100 102 94 94 90 77 76 74 71 82 99 99 94 89 97 99 82 67 63 69 6 12 20 20 33 46 54 56 57 62 70 77 94 89 69 87 103 112 111 80 56 143 118 84 89 87 96 106 133 102 94 134 92 46 46 11 330 31 351 302 283 244 178 220 244 42 15 356 317 278 262 253 262 273 278 285 276 275
29 122 149 143 136 124 93 72 63 85 104 103 93 88 103 92 73 71 65 64 86 118 114 76 101 105 75 61 43 31 10 16 20 31 40 48 56 59 63 67 71 75 88 92 86 93 100 101 98 84 51 112 109 107 123 114 72 120 353 71 125 173 120 37 9 331 315 48 334 300 289 147 179 220 191 49 358 329 286 266 269 267 275 284 286 298 290 287
49 114 134 135 129 110 90 75 72 86 105 110 105 88 84 79 83 82 59 60 83 87 91 89 105 104 78 80 56 29 21 19 27 41 35 42 57 61 65 69 75 76 80 86 87 90 95 94 93 93 37 54 106 144 116 88 27 115 10 248 143 214 125 60 14 345 49 111 330 307 275 5 53 188 86 39 4 322 273 264 273 274 281 288 285 293 291 289
69 112 128 130 122 103 88 79 77 82 92 96 94 81 57 83 116 94 52 66 111 95 89 90 92 93 83 92 59 18 22 25 27 24 20 30 44 55 60 67 73 75 77 81 85 86 86 82 76 80 59 35 131 135 107 90 74 58 267 174 93 294 109 85 38 13 26 326 322 305 271 301 350 42 87 54 29 20 273 268 274 275 277 281 279 281 286 290
83 112 126 126 114 101 90 87 85 86 89 86 78 68 56 112 169 120 51 71 120 118 89 69 73 96 98 78 20 6 21 18 10 9 15 27 29 26 30 58 70 74 75 68 73 72 61 67 62 51 81 109 102 95 124 143 116 88 306 43 83 296 50 109 92 35 2 313 299 258 277 302 319 87 122 141 311 313 282 274 272 275 276 275 275 272 276 284
92 114 125 123 110 103 98 95 97 97 92 84 76 64 56 57 187 192 71 82 99 99 84 60 65 95 85 14 13 5 359 353 357 4 12 21 26 23 358 34 64 54 70 53 49 42 32 49 92 68 68 66 35 322 204 139 114 117 359 22 107 276 306 307 130 44 346 301 269 231 253 273 267 262 240 194 221 273 270 272 275 276 273 268 269 267 264 267
96 123 129 128 121 120 124 121 124 128 120 89 81 63 59 55 64 104 95 117 120 73 70 39 28 96 76 21 359 341 316 328 354 4 8 12 24 31 29 37 326 319 296 35 33 22 11 37 174 122 66 32 30 333 308 46 36 66 16 345 40 236 234 297 220 20 355 315 270 253 245 269 273 274 272 217 184 250 257 268 276 274 271 268 265 264 264 264
84 134 155 161 182 198 206 219 233 246 257 233 276 348 49 56 61 68 54 55 75 333 56 13 355 123 84 48 335 324 310 330 358 10 11 0 349 14 25 27 21 4 341 255 25 14 357 58 59 75 49 15 18 359 24 61 53 65 56 33 337 288 253 301 359 43 1 312 268 245 252 279 282 282 284 216 173 235 253 257 260 258 261 262 262 262 260 265
81 113 141 151 250 258 258 254 251 232 221 218 274 345 132 111 49 48 37 44 63 46 59 16 7 89 66 39 334 330 330 8 24 20 14 359 337 330 3 7 28 53 43 320 15 358 321 74 60 37 26 354 333 355 56 82 71 98 130 106 272 284 298 241 87 89 357 307 258 224 267 279 277 283 288 241 188 232 239 236 242 242 241 245 254 260 258 265
89 96 98 75 46 13 293 236 225 210 209 243 274 329 205 230 96 137 38 51 72 25 43 46 33 57 57 5 345 349 315 201 44 21 14 3 340 308 349 354 94 59 41 289 299 300 328 72 62 28 28 356 315 178 151 131 88 118 227 302 191 243 297 37 333 85 26 314 240 209 281 275 273 280 271 217 218 221 209 204 210 209 218 234 240 250 256 265
90 92 84 60 42 45 57 110 206 214 217 227 147 105 107 130 124 133 133 101 68 15 38 51 37 46 34 294 1 4 12 20 19 16 8 0 360 6 358 33 79 76 15 293 228 94 59 74 72 76 118 107 102 142 185 108 64 358 243 280 257 315 302 283 174 187 336 290 282 319 295 284 284 286 262 229 229 233 214 216 217 201 214 225 230 243 253 263
77 77 59 35 36 53 59 64 93 145 156 137 116 107 110 117 123 124 107 104 85 10 18 30 36 23 357 18 6 0 51 42 2 3 357 354 23 47 30 59 73 88 4 2 82 115 76 80 66 108 177 172 91 112 187 149 116 25 12 309 326 4 324 259 130 311 293 264 309 311 289 282 289 268 244 228 251 301 302 284 284 274 259 266 295 304 289 278
58 53 33 23 48 65 66 69 85 104 116 116 110 112 123 122 127 126 97 87 91 57 25 29 78 14 10 25 357 352 96 61 341 340 350 1 84 309 52 71 64 71 28 21 74 89 73 56 57 148 191 259 149 126 165 262 88 70 16 354 335 339 314 292 325 319 291 196 307 309 275 245 241 219 217 147 344 293 311 303 281 268 267 287 308 300 271 270
44 45 35 30 63 80 86 84 95 108 109 107 111 121 127 124 135 140 109 59 84 85 323 177 162 46 4 342 353 347 164 76 49 320 346 12 33 267 110 79 25 82 359 1 74 82 66 44 292 189 148 206 230 89 38 303 328 130 98 11 337 324 299 295 318 317 267 172 27 330 284 187 139 231 237 111 305 269 223 282 266 245 236 258 273 265 244 251
38 43 46 57 120 137 131 101 116 125 110 105 127 134 134 128 128 129 108 77 87 18 355 152 164 23 360 343 351 314 188 65 28 350 2 17 7 171 127 36 22 100 197 322 84 86 71 93 210 241 159 195 221 85 57 307 315 111 71 31 347 314 298 312 332 319 268 309 359 345 326 318 200 227 252 33 299 274 254 249 253 242 227 226 235 240 236 247
32 37 57 96 135 155 185 160 151 149 115 148 153 145 146 140 112 95 81 67 98 333 11 55 230 5 358 338 335 279 150 345 315 32 18 9 360 278 87 44 65 75 94 165 111 80 57 141 137 64 194 213 15 70 64 331 317 355 76 13 292 309 307 337 336 308 334 315 259 32 12 286 269 112 67 2 292 271 262 248 240 233 229 228 226 226 236 248
29 32 48 72 101 101 102 141 154 165 166 163 160 149 152 152 116 49 114 120 97 358 35 43 222 358 340 334 6 63 95 321 355 29 0 10 19 23 75 60 94 89 89 247 164 78 8 50 62 2 264 43 34 42 46 303 309 23 103 255 326 330 327 332 304 285 328 273 210 51 8 274 264 104 112 351 285 266 266 251 236 225 218 220 220 221 234 247
28 30 38 52 75 80 102 134 146 158 155 155 154 148 153 159 154 43 89 181 255 54 84 295 231 350 334 329 25 42 34 10 35 344 334 20 34 37 73 76 112 111 104 328 84 107 44 29 328 324 9 35 58 57 25 268 315 60 143 187 135 158 172 295 298 289 258 255 162 29 352 317 314 118 149 138 254 260 267 253 243 220 213 218 217 223 232 242
28 32 35 42 82 87 96 111 121 140 145 148 151 151 154 149 122 78 62 191 147 155 238 319 295 327 345 352 27 25 27 27 355 327 341 45 31 43 74 154 151 116 83 54 68 91 131 203 261 355 35 38 99 84 26 345 46 103 203 227 197 195 197 208 281 285 247 228 104 32 347 328 319 80 173 193 186 216 204 209 215 199 208 217 219 228 234 238
30 38 38 36 93 143 116 104 126 141 139 139 143 133 104 70 89 119 164 235 102 267 290 24 338 346 14 51 36 14 22 21 343 347 30 31 8 45 72 259 205 127 95 76 71 105 164 166 171 67 50 357 140 128 80 81 120 240 241 252 234 197 198 207 196 216 264 310 97 46 342 309 266 182 137 198 193 215 225 225 211 201 206 214 221 232 236 241
36 43 46 51 107 155 148 138 141 143 139 141 144 103 94 41 304 169 309 335 37 342 27 40 348 12 24 46 40 2 340 21 12 22 42 19 29 41 11 352 333 227 112 89 76 139 150 92 97 127 111 336 263 194 144 136 182 242 246 263 271 205 178 232 198 205 277 20 106 119 343 278 245 256 269 255 231 226 240 269 287 244 229 236 242 247 250 257
45 49 57 73 100 113 117 128 138 141 146 152 147 57 81 78 259 167 354 354 17 352 35 48 2 22 351 8 39 354 314 10 3 29 57 301 64 66 38 35 339 289 71 99 147 162 145 118 137 187 135 109 299 310 343 161 192 265 299 319 313 347 20 330 322 278 285 27 114 203 317 277 258 268 253 266 299 320 269 277 288 279 264 265 272 277 282 277
60 64 80 86 92 98 102 108 110 115 137 145 105 52 65 253 234 143 238 260 319 336 11 8 335 48 42 53 27 313 229 67 338 357 38 279 89 77 116 89 9 317 100 126 129 4 292 144 92 33 59 292 302 352 348 309 299 349 323 308 315 355 346 323 317 315 312 320 123 166 289 268 317 359 206 268 309 305 262 255 268 268 263 272 284 282 276 270
83 78 85 80 78 78 80 82 70 68 91 85 61 62 98 239 221 165 208 211 199 209 132 305 310 76 45 38 25 296 241 75 17 22 20 15 74 57 53 40 10 347 272 196 119 64 274 300 58 35 338 334 359 35 332 278 265 126 181 263 318 357 340 16 12 351 330 305 273 224 264 239 276 305 271 272 283 270 250 235 248 259 250 254 272 268 261 260
129 78 68 57 51 50 52 54 45 44 66 76 68 92 211 246 206 164 159 119 149 157 153 161 33 78 113 273 77 74 261 327 356 349 38 37 185 159 68 333 2 359 321 335 135 187 267 114 89 97 141 40 14 7 264 288 297 199 247 6 50 346 286 114 98 147 209 276 271 298 286 281 278 278 279 299 285 264 243 229 238 252 248 249 262 260 256 261
152 96 61 36 29 32 39 41 45 57 76 81 95 197 203 205 305 209 344 6 183 155 147 155 22 38 175 188 162 143 298 304 319 306 112 100 192 165 156 189 87 132 317 327 176 238 311 138 121 182 161 97 352 266 219 254 285 285 40 93 109 232 223 184 283 292 264 283 300 42 300 302 311 287 294 308 282 251 232 236 252 252 243 246 255 259 263 268
158 116 66 26 18 24 40 46 57 76 75 72 112 229 166 146 336 353 13 327 292 278 127 147 27 337 200 188 165 128 344 290 28 51 148 218 169 153 162 152 138 253 325 314 272 79 297 241 115 188 288 98 170 246 217 168 239 317 69 114 209 284 40 284 297 335 335 308 293 305 306 279 243 215 235 196 206 229 225 252 279 259 243 246 259 272 274 274
162 130 61 12 8 20 49 60 68 67 79 102 181 203 170 171 329 359 216 313 278 206 130 135 25 346 203 185 122 96 359 323 101 83 196 206 141 185 248 164 171 164 348 301 289 89 290 280 111 135 303 336 206 230 231 143 164 224 181 159 317 3 350 359 24 315 303 305 294 313 331 256 214 210 226 201 196 217 224 250 275 274 278 275 274 279 280 283
151 102 164 359 5 39 68 63 58 50 69 172 193 162 159 188 181 104 218 274 271 223 129 150 150 158 180 241 304 140 50 27 123 107 238 168 135 190 243 200 155 141 174 275 277 185 167 271 298 121 204 267 218 150 326 2 114 213 198 165 130 107 309 273 104 357 306 291 266 294 298 272 221 182 215 219 209 227 242 269 283 291 294 289 278 275 283 290
109 57 193 352 359 80 73 52 49 39 87 111 72 129 154 169 148 114 216 252 303 277 273 133 131 138 161 186 245 178 145 88 135 171 208 195 211 154 70 354 97 135 183 178 163 236 204 192 286 243 205 228 86 48 356 352 345 309 290 229 155 135 196 232 243 64 341 279 240 271 288 282 283 149 225 235 257 275 260 273 285 285 284 287 284 277 282 289
77 76 266 350 354 178 77 53 61 6 99 113 30 94 113 118 125 88 206 219 323 250 67 85 93 96 142 156 134 171 162 129 144 182 221 204 243 56 71 5 327 317 228 154 93 299 284 200 255 253 248 43 51 49 23 344 319 293 298 325 88 162 218 245 253 187 162 200 41 27 280 275 261 139 243 257 262 269 261 245 265 280 280 283 287 286 287 284
66 132 5 0 5 125 84 63 165 26 55 356 327 42 66 86 155 129 263 233 261 233 107 98 71 55 158 211 133 163 197 194 179 177 220 205 100 76 89 340 268 224 215 212 118 152 203 229 271 262 123 114 127 137 135 346 311 263 242 214 204 267 318 329 341 71 181 188 161 168 250 257 253 138 251 272 276 271 257 229 249 275 281 277 282 287 290 289
39 185 336 2 9 126 162 104 169 95 89 240 27 98 155 283 158 94 263 213 217 216 137 121 40 71 114 58 105 136 223 219 195 164 164 190 137 81 67 326 265 214 228 322 66 174 218 158 265 294 315 172 183 174 174 171 234 253 224 158 210 145 94 91 95 77 252 210 175 202 255 250 126 89 260 257 259 268 257 218 215 253 278 284 287 289 291 293
44 143 263 1 25 57 106 196 137 127 149 159 109 131 159 128 96 315 277 121 49 271 120 105 241 95 96 77 82 80 17 350 181 100 101 167 144 86 48 340 299 295 4 347 339 268 278 188 215 262 288 272 275 295 297 113 150 221 194 180 206 179 160 173 129 161 240 200 166 212 249 264 210 206 235 240 257 285 287 268 209 228 259 273 279 286 293 294
78 86 296 344 28 54 76 12 87 120 151 160 144 158 154 119 111 306 316 88 120 211 58 83 170 117 101 126 91 73 13 353 37 116 183 184 157 116 44 37 20 326 183 306 304 272 87 247 238 246 255 265 314 11 74 108 167 200 190 191 198 199 203 192 143 201 203 154 194 229 246 288 283 266 263 270 271 280 292 298 291 274 271 270 271 282 290 288
66 113 4 325 17 50 74 42 46 91 156 184 156 148 147 130 89 116 206 330 123 174 18 57 169 180 163 161 145 128 284 346 11 139 204 210 112 107 354 129 99 295 237 241 295 316 138 241 223 226 254 268 306 359 160 209 242 235 222 204 191 192 194 192 207 203 135 141 246 236 211 249 271 275 282 287 286 287 295 298 300 304 302 298 296 297 293 288
34 131 164 302 316 53 40 18 42 68 70 67 64 118 139 147 167 177 181 22 4 246 226 174 227 220 191 162 161 159 152 330 286 205 172 154 151 142 152 178 164 315 235 199 313 358 203 259 176 176 265 275 273 249 201 211 244 244 241 231 201 186 189 205 221 202 158 215 255 245 170 239 264 277 281 282 290 304 303 298 297 297 292 291 297 298 293 291
60 113 88 332 8 113 29 359 64 83 71 66 76 146 162 178 191 192 131 113 315 274 222 227 241 216 190 178 154 150 176 201 242 229 181 158 172 169 164 182 169 67 210 166 68 319 218 221 127 161 283 282 272 258 207 218 250 256 244 237 218 201 201 213 229 213 199 239 262 272 277 276 273 273 276 282 294 301 293 291 290 285 282 286 291 288 286 290
126 139 138 67 73 83 52 20 67 93 60 40 185 172 171 186 191 188 153 165 179 185 189 223 240 176 153 175 180 204 216 191 135 219 180 153 167 205 207 193 141 124 198 168 112 298 261 228 102 112 285 281 289 23 161 211 237 255 255 244 223 215 218 226 237 229 220 245 261 270 283 279 271 268 272 280 289 290 282 281 278 274 280 290 288 284 286 291
94 106 129 117 95 13 321 42 27 87 121 199 201 173 185 203 196 177 167 183 167 174 187 193 168 117 88 180 217 243 235 193 35 266 174 152 148 186 188 164 137 146 171 173 142 188 223 211 95 92 275 274 2 12 322 274 255 254 262 251 219 206 211 220 222 209 207 222 243 263 265 258 261 281 292 269 262 258 266 275 280 280 280 278 278 285 290 289
105 89 98 105 102 292 306 80 68 220 227 224 165 161 185 220 196 178 173 151 85 152 210 181 151 122 100 201 224 248 224 161 76 51 111 102 71 78 77 62 86 127 161 163 154 167 190 189 146 145 263 270 343 345 338 325 292 262 259 250 211 193 197 213 225 218 209 205 212 224 230 242 259 59 287 276 269 260 262 271 282 286 282 275 271 271 275 278